This demonstration page uses our WeatherBlox Daily Observations layout. Learn more.

38.88101, -77.10428

Hourly Observations for March 22, 2020

Temp ( °F °C ) Dew Point ( °F °C ) Humidity (%) Winds ( mph kmh ) Pressure ( in mb ) Visibility ( mi km ) Precip ( " mm )
12:52 am 00:52 Cloudy 48 8.9 26 -3.3 42 42 NNE 12 19 30.44 1031 10 16.0934 0 0
1:52 am 01:52 Cloudy 46 7.8 26 -3.3 46 46 NE 9 15 30.45 1031 10 16.0934 0 0
2:52 am 02:52 Cloudy 46 7.8 25 -3.9 44 44 N 12 19 30.46 1031 10 16.0934 0 0
3:52 am 03:52 Cloudy 45 7.2 25 -3.9 46 46 NNE 10 17 30.46 1032 10 16.0934 0 0
4:52 am 04:52 Cloudy 44 6.7 23 -5 43 43 N 13 20 30.47 1032 10 16.0934 0 0
5:52 am 05:52 Cloudy 43 6.1 23 -5 45 45 NNE 14 22 30.5 1033 10 16.0934 0 0
6:52 am 06:52 Mostly Cloudy 41 5 21 -6.1 45 45 NNE 14 22 30.52 1034 10 16.0934 0 0
7:52 am 07:52 Mostly Cloudy 40 4.4 21 -6.1 47 47 N 13 20 30.56 1035 10 16.0934 0 0
8:52 am 08:52 Mostly Cloudy 41 5 21 -6.1 45 45 NNE 16 26 30.57 1035 10 16.0934 0 0
9:52 am 09:52 Sunny 44 6.7 22 -5.6 41 41 NNE 8 13 30.59 1036 10 16.0934 0 0
9:57 am 09:57 Mostly Cloudy 43 6.1 22 -5.6 43 43 NE 12 19 30.59 1036 10 16.0934 0 0
10:52 am 10:52 Mostly Cloudy 45 7.2 24 -4.4 44 44 NE 7 11 30.6 1036 10 16.0934 0 0
11:52 am 11:52 Mostly Cloudy 48 8.9 24 -4.4 39 39 N 7 11 30.6 1036 10 16.0934 0 0
12:52 pm 12:52 Mostly Cloudy 50 10 27 -2.8 41 41 NE 9 15 30.59 1036 10 16.0934 0 0
1:52 pm 13:52 Mostly Cloudy 51 10.6 27 -2.8 39 39 E 7 11 30.57 1035 10 16.0934 0 0
2:52 pm 14:52 Mostly Cloudy 52 11.1 27 -2.8 38 38 ESE 6 9 30.55 1034 10 16.0934 0 0
3:52 pm 15:52 Mostly Cloudy 52 11.1 28 -2.2 40 40 E 8 13 30.53 1034 10 16.0934 0 0
4:52 pm 16:52 Cloudy 52 11.1 31 -0.6 45 45 ESE 9 15 30.53 1034 10 16.0934 0 0
5:52 pm 17:52 Cloudy 50 10 34 1.1 54 54 ESE 12 19 30.52 1033 10 16.0934 0 0
6:52 pm 18:52 Cloudy 49 9.4 37 2.8 64 64 ESE 14 22 30.53 1034 10 16.0934 0 0
7:52 pm 19:52 Cloudy 48 8.9 37 2.8 66 66 ESE 14 22 30.54 1034 10 16.0934 0 0
8:52 pm 20:52 Cloudy 47 8.3 37 2.8 69 69 E 20 31 30.54 1034 10 16.0934 0 0
9:52 pm 21:52 Cloudy 46 7.8 36 2.2 68 68 ESE 14 22 30.56 1035 10 16.0934 0 0
10:52 pm 22:52 Cloudy 45 7.2 36 2.2 71 71 ESE 15 24 30.55 1035 10 16.0934 0 0
11:52 pm 23:52 Cloudy 45 7.2 37 2.8 74 74 E 15 24 30.53 1034 10 16.0934 0 0

Powered by AerisWeather